This is the latest recevied weather packets stored in our database for station/object HF3P-11. If no packets are shown the sender has not sent any weather packets the latest 1 day(s).
| Time | Temp. | Humidity | Pressure | Rain* | Wind** | Luminosity | Snow |
|---|---|---|---|---|---|---|---|
| 1778005511 | 14.44° C | 77% | 1000.4 hPa | 0 mm | 2.24 m/s, 34° | - | - |
| 1778005208 | 14.44° C | 76% | 1000.5 hPa | 0 mm | 2.68 m/s, 37° | - | - |
| 1778004909 | 15° C | 76% | 1000.4 hPa | 0 mm | 2.68 m/s, 44° | - | - |
| 1778004611 | 15° C | 76% | 1000.3 hPa | 0 mm | 2.68 m/s, 45° | - | - |
| 1778004309 | 15° C | 76% | 1000.4 hPa | 0 mm | 2.24 m/s, 43° | - | - |
| 1778004000 | 15° C | 76% | 1000.3 hPa | 0 mm | 2.24 m/s, 43° | - | - |
| 1778003708 | 15° C | 76% | 1000.2 hPa | 0 mm | 2.24 m/s, 41° | - | - |
| 1778003408 | 15° C | 75% | 1000.2 hPa | 0 mm | 2.68 m/s, 42° | - | - |
| 1778003100 | 15° C | 75% | 1000.2 hPa | 0 mm | 2.68 m/s, 43° | - | - |
| 1778002811 | 15° C | 75% | 1000.1 hPa | 0 mm | 2.24 m/s, 38° | - | - |
| 1778002509 | 15° C | 75% | 1000.2 hPa | 0 mm | 2.24 m/s, 36° | - | - |
| 1778002201 | 15° C | 74% | 1000.2 hPa | 0 mm | 2.24 m/s, 34° | - | - |
| 1778001911 | 15° C | 74% | 1000.2 hPa | 0 mm | 2.24 m/s, 36° | - | - |
| 1778001601 | 15° C | 74% | 1000.1 hPa | 0 mm | 2.68 m/s, 41° | - | - |
| 1778001301 | 15° C | 73% | 1000.4 hPa | 0 mm | 2.68 m/s, 49° | - | - |
| 1778001000 | 15.56° C | 73% | 1000.3 hPa | 0 mm | 2.24 m/s, 74° | - | - |
| 1778000700 | 15° C | 73% | 1000.2 hPa | 0 mm | 2.24 m/s, 64° | - | - |
| 1778000401 | 15° C | 73% | 1000.3 hPa | 0 mm | 2.68 m/s, 34° | - | - |
| 1778000101 | 15° C | 73% | 1000.2 hPa | 0 mm | 2.68 m/s, 39° | - | - |
| 1777999800 | 15.56° C | 73% | 1000.3 hPa | 0 mm | 2.24 m/s, 39° | - | - |
| 1777999508 | 15.56° C | 73% | 1000.2 hPa | 0 mm | 2.24 m/s, 39° | - | - |
| 1777999209 | 15.56° C | 73% | 1000.2 hPa | 0 mm | 2.68 m/s, 33° | - | - |
| 1777998910 | 15.56° C | 73% | 1000.3 hPa | 0 mm | 2.68 m/s, 25° | - | - |
| 1777998600 | 15.56° C | 72% | 1000.3 hPa | 0 mm | 2.68 m/s, 22° | - | - |
| 1777998301 | 15.56° C | 72% | 1000.5 hPa | 0 mm | 3.13 m/s, 28° | - | - |
* Rain latest hour (hover to see other rain measurements)
** Current wind speed in m/s (hover to see current wind gust speed)